[[{"header":{"parameterUnit":"m.s-1","parameterCategory":1,"la1":30.2991,"la2":30.254,"lo1":-89.0895,"lo2":-89.0444,"dy":0.0017,"dx":0.0017,"nx":28,"ny":28,"refTime":"2023-08-14T03:00:00:Z","depth":0,"parameterNumber":2,"parameterNumberName":"U-component_of_WINDS"},"data":[0,0,0,0,0,0,0,0,0,0,0,0,0,0,0,0,0,0,0,0,0,0,0,0,0,0,0,0,0,0,0,0,0,0,0,0,0,0,0,0,0,0,0,0,0,0,0,0,0,0,0,0,0,0,0,0,0,0,5.3838,5.384,0,5.3996,5.3997,5.3999,5.3931,5.3928,5.3924,5.392,5.4083,5.4091,5.4099,0,0,0,0,0,0,0,0,0,0,0,0,0,5.3479,5.3486,5.3838,5.384,5.3842,5.3995,5.3997,5.4,5.3932,5.3927,5.3923,5.3918,5.4081,5.409,5.4099,0,0,0,0,0,0,0,0,0,0,0,0,0,5.3636,5.3488,5.3838,5.3827,5.3827,5.3995,5.3997,5.4,5.3933,5.3927,5.3922,5.3916,5.4077,5.4089,5.4101,5.4289,0,0,5.4137,5.4142,0,0,0,0,0,0,0,0,5.3627,5.3649,5.3826,5.3828,5.3829,5.3938,5.3931,5.4097,5.3934,5.3893,5.392,5.3913,5.404,5.4054,5.4096,5.4296,5.4303,5.4138,5.4145,5.415,5.4154,0,0,0,0,0,0,0,5.3616,5.3642,5.39,5.3829,5.383,5.3814,5.383,5.3962,5.3997,5.3896,5.3892,5.3911,5.4039,5.4085,5.41,5.4306,5.4138,5.4148,5.4156,5.416,5.4666,5.4672,0,0,0,0,0,0,5.3605,5.3633,5.3895,5.3905,5.3711,5.3825,5.3843,5.3909,5.3995,5.4003,5.3916,5.3907,5.4068,5.4086,5.4105,5.433,5.415,5.4161,5.4168,5.466,5.4668,5.4675,0,0,0,0,0,0,5.3598,5.3629,5.3889,5.3768,5.38,5.3837,5.3912,5.3915,5.3961,5.401,5.4016,5.3956,5.4064,5.4089,5.4243,5.4334,5.4167,5.4177,5.4653,5.4662,5.4671,5.4781,0,0,0,0,0,0,5.3588,5.3627,5.3699,5.377,5.3806,5.4024,5.3917,5.3922,5.3981,5.3971,5.4049,5.4057,5.4061,5.4226,5.4255,5.4348,5.4187,5.4645,5.4657,5.4668,5.4769,5.4793,5.4813,0,0,0,0,0,5.3575,5.3724,5.3703,5.3735,5.3897,5.403,5.4051,5.4052,5.3989,5.4061,5.4092,5.4054,5.432,5.4242,5.4274,5.4372,5.4639,5.4653,5.4667,5.4759,5.4788,5.4813,0,0,0,0,0,0,5.3663,5.3733,5.371,5.3887,5.3953,5.4018,5.4109,5.4083,5.4169,5.4156,5.4155,5.4173,5.4333,5.4368,5.428,5.4558,5.447,5.4491,5.4529,5.4557,5.4578,5.4566,5.4197,0,0,0,0,0,5.3703,5.3805,5.3861,5.4011,5.4045,5.4072,5.413,5.4125,5.4194,5.4221,5.4264,5.4332,5.4431,5.4496,5.4589,5.4774,5.4789,5.4857,5.4879,5.4897,5.4915,5.5014,5.5044,5.4721,5.4721,5.4721,0,0,5.3787,5.3838,5.3902,5.403,5.4081,5.4186,5.4096,5.4211,5.4289,5.4239,5.4387,5.4421,5.4497,5.4667,5.4744,5.4701,5.5008,5.4915,5.4929,5.4938,5.5032,5.5062,5.5089,5.4731,5.4729,5.4728,0,0,5.3993,5.4042,5.4172,5.4224,5.4301,5.4318,5.4349,5.4418,5.4438,5.4587,5.4551,5.4644,5.4814,5.4869,5.4919,5.5145,5.5113,5.5176,5.529,5.5386,5.5412,5.5434,5.5513,5.5542,5.5194,5.5194,5.5194,0,5.4087,5.4244,5.4242,5.436,5.4417,5.4375,5.4506,5.4557,5.4662,5.4702,5.4652,5.4864,5.4913,5.5094,5.5149,5.5192,5.5226,5.5166,5.5408,5.5431,5.5452,5.5527,5.5557,5.5201,5.52,5.52,5.5199,0,5.4355,5.4464,5.456,5.466,5.4728,5.4852,5.4869,5.4938,5.4927,5.4949,5.51,5.5157,5.526,5.5303,5.5295,5.5483,5.5454,5.5407,5.5318,5.5489,5.556,5.5589,5.5211,5.5209,5.5207,5.5205,0,0,5.4621,5.4718,5.4753,5.4797,5.4879,5.4963,5.5085,5.5185,5.5244,5.5317,5.5419,5.5563,5.5519,5.5577,5.5574,5.5659,5.5831,5.5601,5.5602,5.564,5.6041,5.6075,5.6108,5.5811,5.5816,5.5821,5.6034,0,5.4831,5.5044,5.5046,5.5242,5.5341,5.5303,5.5409,5.5471,5.5495,5.5583,5.5609,5.5711,5.5646,5.568,5.5762,5.5793,5.5912,5.5778,5.5904,5.5909,5.5885,5.6145,5.6182,5.638,5.6062,5.6066,5.607,0,5.5106,5.5186,5.5392,5.5457,5.5499,5.5595,5.5686,5.5771,5.584,5.5851,5.5914,5.5898,5.6022,5.593,5.61,5.6009,5.6061,5.6084,5.6092,5.6102,5.5999,5.6161,5.6444,5.6473,5.6113,5.611,5.6107,0,5.5277,5.5437,5.558,5.5619,5.57,5.5768,5.5804,5.5867,5.5927,5.6007,5.6046,5.614,5.6191,5.6264,5.6273,5.6206,5.6444,5.6353,5.6455,5.6455,5.6506,5.6503,5.6799,5.6543,5.6542,5.6542,5.6541,0,5.5511,5.5638,5.5658,5.5746,5.5886,5.5887,5.6026,5.6057,5.6114,5.6207,5.618,5.6268,5.6276,5.6367,5.6375,5.6514,5.6538,5.6549,5.655,5.6551,5.6549,5.6584,5.657,5.655,5.6548,5.6546,5.6545,0,5.5725,5.5744,5.5897,5.596,5.5979,5.608,5.6134,5.6218,5.6238,5.6356,5.6384,5.6417,5.6522,5.6539,5.6663,5.6668,5.6833,5.6821,5.681,5.6807,5.6908,5.6898,5.7236,5.7279,5.6996,5.6999,5.7001,0,5.5873,5.5969,5.6042,5.6102,5.6142,5.624,5.63,5.6304,5.6368,5.6453,5.6526,5.6628,5.671,5.688,5.6914,5.7008,5.6997,5.7109,5.7011,5.7008,5.6996,5.6989,5.6998,5.7127,5.713,5.7133,5.7135,0,5.6132,5.6136,5.6223,5.6314,5.6387,5.6459,5.6527,5.6578,5.6591,5.6664,5.677,5.6833,5.6959,5.706,5.7154,5.7191,5.7166,5.7165,5.7194,5.7195,5.7184,5.7189,5.6859,5.7157,5.7155,5.7153,5.7152,5.7151,5.6316,5.6399,5.6463,5.6561,5.6613,5.6676,5.6757,5.6787,5.6876,5.6978,5.6975,5.7092,5.7157,5.7279,5.7323,5.7414,5.7378,5.742,5.743,5.744,5.7448,5.7171,5.7432,5.7431,5.743,5.743,5.743,0,5.6572,5.6611,5.6701,5.6796,5.6873,5.6842,5.6915,5.6981,5.7084,5.7146,5.7227,5.7349,5.7446,5.7488,5.7584,5.7649,5.7639,5.7674,5.7668,5.7677,5.7476,5.7441,5.768,5.768,5.768,5.768,5.768,5.768,5.6714,5.6852,5.6864,5.7027,5.7065,5.7178,5.7223,5.7281,5.7331,5.7467,5.7548,5.7574,5.7628,5.7728,5.7816,5.7825,5.7861,5.7901,5.7905,5.7717,5.7691,5.7667,5.7634,5.7909,5.791,5.8098,5.81,5.8101]},{"header":{"parameterUnit":"m.s-1","parameterCategory":1,"la1":30.2991,"la2":30.254,"lo1":-89.0895,"lo2":-89.0444,"dy":0.0017,"dx":0.0017,"nx":28,"ny":28,"refTime":"2023-08-14T03:00:00:Z","depth":0,"parameterNumber":3,"parameterNumberName":"V-component_of_WINDS"},"data":[0,0,0,0,0,0,0,0,0,0,0,0,0,0,0,0,0,0,0,0,0,0,0,0,0,0,0,0,0,0,0,0,0,0,0,0,0,0,0,0,0,0,0,0,0,0,0,0,0,0,0,0,0,0,0,0,0,0,1.0043,1.0044,0,1.0095,1.0095,1.0096,1.0088,1.0087,1.0086,1.0086,1.0138,1.014,1.0142,0,0,0,0,0,0,0,0,0,0,0,0,0,0.9935,0.9937,1.0043,1.0044,1.0044,1.0095,1.0095,1.0096,1.0088,1.0087,1.0086,1.0085,1.0137,1.014,1.0142,0,0,0,0,0,0,0,0,0,0,0,0,0,0.9984,0.9938,1.0043,1.0046,1.0047,1.0095,1.0095,1.0096,1.0089,1.0087,1.0086,1.0085,1.0136,1.0139,1.0143,1.0189,0,0,1.0153,1.0154,0,0,0,0,0,0,0,0,0.9981,0.9988,1.0045,1.0046,1.0047,1.0084,1.0077,1.0127,1.0089,1.0073,1.0086,1.0084,1.0121,1.0125,1.0138,1.0192,1.0194,1.0153,1.0155,1.0157,1.0158,0,0,0,0,0,0,0,0.9978,0.9986,1.0063,1.0046,1.0047,1.0045,1.005,1.0086,1.0104,1.0074,1.0074,1.008,1.0121,1.0135,1.0139,1.0195,1.0153,1.0156,1.0158,1.0159,1.0288,1.029,0,0,0,0,0,0,0.9974,0.9983,1.0062,1.0065,1.0011,1.0048,1.0054,1.0073,1.0103,1.0106,1.0081,1.008,1.013,1.0135,1.0141,1.0197,1.0157,1.016,1.0162,1.0287,1.0289,1.029,0,0,0,0,0,0,0.9972,0.9981,1.006,1.0024,1.0034,1.0051,1.0073,1.0075,1.0089,1.0108,1.0111,1.0092,1.0129,1.0136,1.0177,1.0199,1.0161,1.0164,1.0285,1.0287,1.0289,1.031,0,0,0,0,0,0,0.9969,0.998,0.9999,1.0024,1.0036,1.0096,1.0074,1.0077,1.0095,1.0093,1.0119,1.0122,1.0128,1.0172,1.018,1.0203,1.0167,1.0283,1.0286,1.0289,1.0307,1.0313,1.0317,0,0,0,0,0,0.9965,1.0002,1.0,1.0009,1.0059,1.0097,1.0104,1.011,1.0096,1.0115,1.0127,1.0122,1.0195,1.0177,1.0186,1.0209,1.0282,1.0285,1.0289,1.0305,1.0312,1.0317,0,0,0,0,0,0,0.9979,1.0006,1.0003,1.005,1.0071,1.0096,1.0119,1.0116,1.0142,1.0139,1.0145,1.0152,1.0193,1.0205,1.0184,1.0255,1.0237,1.0242,1.0246,1.0252,1.0257,1.0253,1.0169,0,0,0,0,0,0.9987,1.0016,1.0038,1.0078,1.0088,1.0102,1.0119,1.0122,1.0144,1.0153,1.0168,1.0189,1.0217,1.0235,1.0262,1.0309,1.0314,1.0329,1.0334,1.0338,1.0342,1.0367,1.0374,1.0301,1.0301,1.0301,0,0,1.0005,1.0024,1.0042,1.0081,1.0098,1.0127,1.011,1.0141,1.0163,1.0157,1.0197,1.0209,1.0233,1.0277,1.0297,1.0288,1.0364,1.0342,1.0345,1.0347,1.0371,1.0378,1.0384,1.0303,1.0303,1.0302,0,0,1.0053,1.007,1.0105,1.0122,1.0147,1.0156,1.0164,1.0188,1.0196,1.0236,1.0232,1.0257,1.0305,1.0322,1.0337,1.039,1.0386,1.0398,1.0423,1.0447,1.0453,1.0458,1.0477,1.0484,1.0403,1.0403,1.0403,0,1.0072,1.0117,1.0123,1.0155,1.0172,1.0168,1.0202,1.0218,1.0251,1.0263,1.0252,1.0311,1.0327,1.0375,1.0388,1.04,1.0409,1.0396,1.0452,1.0457,1.0462,1.048,1.0487,1.0404,1.0404,1.0404,1.0404,0,1.0139,1.017,1.0194,1.0226,1.0246,1.0279,1.0289,1.0308,1.0309,1.0318,1.0358,1.0377,1.0407,1.0418,1.042,1.0466,1.046,1.0451,1.0432,1.047,1.0487,1.0494,1.0406,1.0405,1.0405,1.0405,0,0,1.0198,1.0232,1.0241,1.0255,1.0282,1.0306,1.0338,1.0368,1.0384,1.0406,1.0433,1.0473,1.0464,1.0481,1.0484,1.0505,1.0545,1.0493,1.0494,1.0502,1.0597,1.0604,1.0612,1.0542,1.0543,1.0544,1.0595,0,1.0249,1.0307,1.0312,1.0364,1.0392,1.0388,1.0416,1.0435,1.0444,1.0469,1.0479,1.0507,1.0494,1.0504,1.0525,1.0536,1.0564,1.0532,1.0567,1.0568,1.0562,1.062,1.0628,1.0675,1.0601,1.0602,1.0603,0,1.0316,1.034,1.0395,1.0417,1.0429,1.0454,1.0481,1.0505,1.0526,1.0531,1.055,1.0549,1.0582,1.0561,1.0606,1.0584,1.0598,1.0605,1.0607,1.0611,1.0588,1.0626,1.069,1.0697,1.0614,1.0613,1.0612,0,1.0353,1.04,1.0438,1.045,1.0478,1.0495,1.0507,1.0527,1.0544,1.0567,1.0578,1.0605,1.0619,1.0639,1.0646,1.063,1.069,1.067,1.0695,1.0694,1.0708,1.0707,1.0775,1.0717,1.0716,1.0716,1.0716,0,1.041,1.0443,1.0455,1.0479,1.0516,1.0522,1.0558,1.0569,1.0586,1.0612,1.0609,1.0633,1.0639,1.0664,1.0669,1.0705,1.0711,1.0716,1.0717,1.0716,1.0716,1.0726,1.0723,1.0718,1.0718,1.0717,1.0717,0,1.0458,1.0468,1.051,1.0532,1.0538,1.0564,1.0583,1.0605,1.0613,1.0645,1.0653,1.0666,1.0694,1.0702,1.0737,1.074,1.0782,1.078,1.0775,1.0775,1.0799,1.0796,1.0876,1.0887,1.0821,1.0822,1.0822,0,1.0494,1.0519,1.0544,1.0561,1.0574,1.0601,1.0618,1.0624,1.0642,1.0667,1.0686,1.0714,1.0737,1.0783,1.0795,1.0821,1.0819,1.0845,1.0823,1.0821,1.082,1.0818,1.082,1.085,1.085,1.0851,1.0851,0,1.0555,1.0558,1.0584,1.061,1.0631,1.0652,1.0673,1.0686,1.0695,1.0715,1.0744,1.0762,1.0796,1.0824,1.085,1.0862,1.0858,1.0858,1.0865,1.0865,1.0861,1.0863,1.0786,1.0856,1.0856,1.0856,1.0855,1.0855,1.0598,1.0621,1.0641,1.0669,1.0685,1.0704,1.0726,1.0737,1.0761,1.079,1.0792,1.0823,1.0843,1.0877,1.089,1.0914,1.0906,1.0916,1.0919,1.0922,1.0923,1.0857,1.0919,1.0919,1.0918,1.0918,1.0918,0,1.066,1.0672,1.0698,1.0727,1.0748,1.0743,1.0765,1.0783,1.0811,1.0829,1.0852,1.0885,1.0911,1.0925,1.0951,1.0968,1.0967,1.0975,1.0973,1.0976,1.0929,1.092,1.0975,1.0975,1.0975,1.0975,1.0975,1.0975,1.0694,1.0732,1.0737,1.0782,1.0794,1.0825,1.0838,1.0855,1.087,1.0907,1.0929,1.0938,1.0954,1.0981,1.1005,1.1008,1.1018,1.1027,1.1029,1.0985,1.0979,1.0974,1.0966,1.1029,1.1029,1.1074,1.1075,1.1075]}]]